Regional Weather Roundup
Issued by NWS

Home | Current Version | Previous Version | Graphics & Text | Print | Product List | Glossary On
Versions: 1 2 3 4 5 6 7 8 9 10 11 12 13 14 15 16 17 18 19 20 21 22 23 24 25 26 27 28 29 30 31 32 33 34 35 36 37 38 39 40 41 42 43 44 45 46 47 48 49 50
000
ASUS45 KABQ 272301
RWRNM
WEATHER ROUNDUP FOR NEW MEXICO
NATIONAL WEATHER SERVICE ALBUQUERQUE NM
400 PM MST SAT DEC 27 2014

NOTE: "FAIR" MEANS FEW OR NO CLOUDS BELOW 12,000 FEET AGL WITH NO
       SIGNIFICANT WEATHER OR OBSTRUCTIONS TO VISION.

      THIS PRODUCT IS RELEASED AS TWO VERSIONS.  ONE VERSION NEAR
      THE TOP OF THE HOUR CONTAINING PRELIMINARY DATA FROM ALBUQUERQUE
      AND OTHER STATIONS.  A FINAL VERSION WITH ADDITIONAL DATA IS
      ISSUED ABOUT 10 MINUTES AFTER THE HOUR.

NMZ501-503-504-510>518-280000-
NORTHWEST PLATEAU/NORTHCENTRAL MOUNTAINS

CITY           SKY/WX    TMP DP  RH WIND       PRES   REMARKS
FARMINGTON     CLEAR     26  13  57 S3        30.23S
SANTA FE       CLEAR     30  11  45 CALM      30.16R
TAOS           PTCLDY    25  10  54 CALM      30.15R
ANGEL FIRE     FAIR      18   5  57 SW6       30.08S WCI  10

$$
NMZ402-403-502-505>509-280000-
WESTCENTRAL MOUNTAINS/SOUTHWEST MOUNTAINS

CITY           SKY/WX    TMP DP  RH WIND       PRES   REMARKS
GALLUP         SUNNY     26   8  46 CALM      30.22R
GRANTS         SUNNY     30   5  34 N13       30.21R WCI  20
SILVER CITY    SUNNY     39  12  33 CALM      30.19R

$$
NMZ407-409-411-412-280000-
SOUTHERN DESERTS

CITY           SKY/WX    TMP DP  RH WIND       PRES   REMARKS
LORDSBURG      FAIR      43  23  45 E3        30.19S
DEMING         SUNNY     41  25  53 SE6       30.19R
HOLLOMAN AFB   SUNNY     43  23  44 VRB1      30.18R
ALAMOGORDO     SUNNY     43  19  39 NW6       30.19R
T OR C         SUNNY     41  10  28 CALM      30.18R

$$
NMZ519>523-280000-
CENTRAL VALLEYS/CENTRAL HIGHLANDS

CITY           SKY/WX    TMP DP  RH WIND       PRES   REMARKS
ALBUQUERQUE    PTCLDY    37  11  34 W9        30.20S WCI  30
DOUBLE EAGLE   PTCLDY    34   5  29 NW10      30.20R WCI  26
MORIARTY ARPT  FAIR      32  18  57 CALM      30.18R
CLINES CORNERS CLEAR     25  12  58 NW9       30.12R WCI  15
BELEN          FAIR      37  12  36 E3        30.21R
SOCORRO        FAIR      40  12  32 N6        30.20S

$$
NMZ524>526-539-540-280000-
SOUTHCENTRAL MOUNTAINS

CITY           SKY/WX    TMP DP  RH WIND       PRES   REMARKS
RUIDOSO        NOT AVBL

$$
NMZ527>531-280000-
NORTHEAST HIGHLANDS/NORTHEAST PLAINS

CITY           SKY/WX    TMP DP  RH WIND       PRES   REMARKS
LAS VEGAS      CLEAR     26  14  60 S15       30.09S WCI  14
RATON          CLEAR     16  11  80 S7        30.11S WCI   6
CLAYTON        CLEAR     30  18  60 S9        30.15S WCI  22

$$
NMZ532>537-280000-
EASTCENTRAL PLAINS

CITY           SKY/WX    TMP DP  RH WIND       PRES   REMARKS
TUCUMCARI      PTCLDY    30  20  66 N3        30.21F
CANNON AFB     CLEAR     34  17  50 N6        30.21S WCI  29
CLOVIS AIRPORT CLEAR     34  16  47 CALM      30.21S

$$
NMZ028-029-538-280000-
SOUTHEAST PLAINS

CITY           SKY/WX    TMP DP  RH WIND       PRES   REMARKS
ROSWELL        CLEAR     41  20  43 NE5       30.23S
ARTESIA        PTCLDY    37  23  56 CALM      30.25S
CARLSBAD       CLOUDY    37  30  75 W6        30.25R WCI  32
HOBBS          CLEAR     36  27  69 N6        30.24R WCI  31


$$


USA.gov is the U.S. government's official web portal to all federal, state and local government web resources and services.